This is the latest recevied weather packets stored in our database for station/object K6CEG. If no packets are shown the sender has not sent any weather packets the latest 10 day(s).
| Time | Temp. | Humidity | Pressure | Rain* | Wind** | Luminosity | Snow |
|---|---|---|---|---|---|---|---|
| 1787855166 | 34.44° C | 43% | 1014.7 hPa | 0 mm | - | 695 W/m² | - |
| 1787854861 | 34.44° C | 43% | 1015.2 hPa | 0 mm | - | 730 W/m² | - |
| 1787854560 | 34.44° C | 43% | 1015.2 hPa | 0 mm | - | 735 W/m² | - |
| 1787854256 | 34.44° C | 43% | 1015.3 hPa | 0 mm | - | 742 W/m² | - |
| 1787853956 | 33.33° C | 43% | 1015.1 hPa | 0 mm | - | 709 W/m² | - |
| 1787853654 | 33.33° C | 44% | 1015.2 hPa | 0 mm | - | 413 W/m² | - |
| 1787853349 | 33.89° C | 44% | 1015.2 hPa | 0 mm | - | 429 W/m² | - |
| 1787853045 | 33.33° C | 44% | 1014.9 hPa | 0 mm | - | 437 W/m² | - |
| 1787852744 | 33.89° C | 44% | 1015.1 hPa | 0 mm | - | 369 W/m² | - |
| 1787852443 | 33.89° C | 42% | 1014.9 hPa | 0 mm | - | 313 W/m² | - |
| 1787852138 | 33.89° C | 41% | 1014.8 hPa | 0 mm | - | 328 W/m² | - |
| 1787851833 | 33.33° C | 43% | 1014.7 hPa | 0 mm | - | 291 W/m² | - |
| 1787851532 | 33.33° C | 43% | 1014.3 hPa | 0 mm | - | 297 W/m² | - |
| 1787851232 | 33.33° C | 43% | 1014.2 hPa | 0 mm | - | 316 W/m² | - |
| 1787850928 | 32.78° C | 43% | 1014 hPa | 0 mm | - | 245 W/m² | - |
| 1787850624 | 33.33° C | 44% | 1014.1 hPa | 0 mm | - | 276 W/m² | - |
| 1787850319 | 33.33° C | 43% | 1014.1 hPa | 0 mm | - | 621 W/m² | - |
| 1787850015 | 33.89° C | 42% | 1013.9 hPa | 0 mm | - | 461 W/m² | - |
| 1787849708 | 34.44° C | 42% | 1014 hPa | 0 mm | - | 563 W/m² | - |
| 1787849405 | 33.33° C | 42% | 1013.9 hPa | 0 mm | - | 607 W/m² | - |
| 1787849102 | 32.78° C | 44% | 1014 hPa | 0 mm | - | 567 W/m² | - |
| 1787848797 | 31.67° C | 47% | 1014 hPa | 0 mm | - | 526 W/m² | - |
| 1787848496 | 30.56° C | 48% | 1013.8 hPa | 0 mm | - | 321 W/m² | - |
| 1787848191 | 31.11° C | 48% | 1014.3 hPa | 0 mm | - | 344 W/m² | - |
| 1787847891 | 30.56° C | 48% | 1014.2 hPa | 0 mm | - | 209 W/m² | - |
* Rain latest hour (hover to see other rain measurements)
** Current wind speed in m/s (hover to see current wind gust speed)